Toronto Pearson, Ontario

1:23 PM EDT on July 19, 2019 (GMT -0400)
Toronto-Pearson International

Weather History for CYYZ - May, 2019

Change the Weather History Date:

Wednesday, May 15, 2019

  Actual Average Record
Temperature  
Mean Temperature 54 °F -  
Max Temperature 68 °F 70 °F 82 °F (1998)
Min Temperature 41 °F 48 °F 35 °F (2016)
Degree Days  
Heating Degree Days 10    
Growing Degree Days 4 (Base 50)    
Moisture  
Dew Point 43 °F    
Average Humidity 59    
Maximum Humidity 81    
Minimum Humidity 27    
Precipitation  
Precipitation 0.03 in 0.09 in - ()
Sea Level Pressure  
Sea Level Pressure 29.85 in    
Wind  
Wind Speed 7 mph ()    
Max Wind Speed 20 mph    
Max Gust Speed 25 mph    
Visibility 15.0 miles    
Events Rain , Thunderstorm    
Averages and records for this station are not official NWS values.
T = Trace of Precipitation, MM = Missing Value Source: Averaged Metar Reports

Daily Weather History Graph

Daily Weather History Graph

Search for Another Location

Airport or City:

Astronomy

May. 15, 2019 Rise Set
Actual Time 5:53 AM EDT 8:36 PM EDT
Civil Twilight 5:20 AM EDT 9:09 PM EDT
Nautical Twilight 4:38 AM EDT 9:51 PM EDT
Astronomical Twilight 3:51 AM EDT 10:40 PM EDT
Moon 4:56 PM EDT (5/15) 4:28 AM EDT (5/15)
Length of Visible Light 15h 49m
Length of Day
14h 43m
Waxing Gibbous, 87% of the Moon is Illuminated
May 15
Waxing Gibbous
May 18
Full
May 26
Last Quarter
Jun 3
New
Jun 10
First Quarter

Hourly Weather History & Observations

Time (EDT) Temp. Windchill Dew Point Humidity Pressure Visibility Wind Dir Wind Speed Gust Speed Precip Events Conditions
12:00 AM 48.2 °F - 41.0 °F 76% 29.93 in 15.0 mi East 3.5 mph - N/A   Clear
1:00 AM 46.4 °F 42.9 °F 37.4 °F 71% 29.91 in 15.0 mi South 6.9 mph - N/A   Clear
2:00 AM 47 °F - 38 °F 60% 29.89 in 15 mi South 3.5 mph - -  
2:00 AM 46.4 °F 42.9 °F 37.4 °F 71% 29.89 in 15.0 mi South 6.9 mph - N/A   Clear
3:00 AM 42.8 °F 38.6 °F 37.4 °F 81% 29.88 in 15.0 mi West 6.9 mph - N/A   Partly Cloudy
4:00 AM 44.6 °F - 35.6 °F 71% 29.87 in 15.0 mi Calm Calm - N/A   Partly Cloudy
5:00 AM 43 °F - 37 °F 72% 29.86 in 15 mi SSW 8.1 mph - -  
5:00 AM 42.8 °F 38.6 °F 37.4 °F 81% 29.86 in 15.0 mi South 6.9 mph - N/A   Mostly Cloudy
6:00 AM 48.2 °F - 37.4 °F 66% 29.86 in 15.0 mi South 5.8 mph - N/A   Mostly Cloudy
7:00 AM 50.0 °F - 35.6 °F 58% 29.86 in 15.0 mi SSE 5.8 mph - N/A   Mostly Cloudy
8:00 AM 52 °F - 43 °F 63% 29.87 in 15 mi South 6.9 mph - -   Mostly Cloudy
8:00 AM 51.8 °F - 42.8 °F 71% 29.87 in 15.0 mi South 5.8 mph - N/A   Mostly Cloudy
9:00 AM 57.2 °F - 41.0 °F 55% 29.87 in 15.0 mi Variable 2.3 mph - N/A   Mostly Cloudy
10:00 AM 64.4 °F - 44.6 °F 49% 29.86 in 15.0 mi Calm Calm - N/A   Scattered Clouds
11:00 AM 68 °F - 42 °F 27% 29.85 in 15 mi WNW 12.7 mph - -  
11:00 AM 68.0 °F - 41.0 °F 37% 29.85 in 15.0 mi WNW 15.0 mph - N/A   Mostly Cloudy
12:00 PM 66.2 °F - 42.8 °F 43% 29.85 in 15.0 mi WNW 15.0 mph - N/A   Mostly Cloudy
1:00 PM 66.2 °F - 42.8 °F 43% 29.84 in 15.0 mi NW 13.8 mph - N/A   Overcast
2:00 PM 64 °F - 44 °F 37% 29.84 in 15 mi NNE 11.5 mph - -   Partly Cloudy
2:00 PM 64.4 °F - 44.6 °F 49% 29.84 in 15.0 mi NNE 15.0 mph 23.0 mph N/A   Mostly Cloudy
2:02 PM 62.6 °F - 42.8 °F 48% 29.85 in 15.0 mi North 15.0 mph 23.0 mph N/A Rain Light Rain
2:45 PM 62.6 °F - 44.6 °F 52% 29.84 in 15.0 mi NNE 10.4 mph 18.4 mph N/A   Mostly Cloudy
3:00 PM 62.6 °F - 44.6 °F 52% 29.84 in 15.0 mi NE 19.6 mph 25.3 mph N/A Rain Light Rain
3:41 PM 57.2 °F - 50.0 °F 77% 29.83 in 15.0 mi North 5.8 mph 19.6 mph N/A Rain Light Rain
4:00 PM 59.0 °F - 50.0 °F 72% 29.82 in 15.0 mi West 5.8 mph - N/A   Mostly Cloudy
5:00 PM 62 °F - 49 °F 53% 29.82 in 15 mi SSW 12.7 mph - -  
5:00 PM 62.6 °F - 50.0 °F 63% 29.82 in 15.0 mi SSW 13.8 mph - N/A   Scattered Clouds
6:00 PM 64.4 °F - 50.0 °F 59% 29.81 in 15.0 mi WSW 6.9 mph - N/A   Mostly Cloudy
6:41 PM 64.4 °F - 44.6 °F 49% 29.81 in 15.0 mi Variable 8.1 mph - N/A Rain Light Rain Showers
6:51 PM 64.4 °F - 46.4 °F 52% 29.81 in 15.0 mi Variable 13.8 mph - N/A Rain , Thunderstorm Light Thunderstorms and Rain
7:32 PM 60.8 °F - 48.2 °F 63% 29.82 in 15.0 mi Variable 5.8 mph - N/A   Scattered Clouds
8:00 PM 63 °F - 46 °F 44% 29.82 in 15 mi NNE 6.9 mph - - Thunderstorm Light Thunderstorm
8:00 PM 62.6 °F - 46.4 °F 55% 29.82 in 15.0 mi NNE 6.9 mph - N/A   Partly Cloudy
9:00 PM 55.4 °F - 48.2 °F 77% 29.84 in 15.0 mi East 4.6 mph - N/A   Partly Cloudy
11:00 PM 58 °F - 46 °F 53% 29.86 in 15 mi NE 8.1 mph - -  
11:00 PM 57.2 °F - 46.4 °F 67% 29.86 in 15.0 mi NE 8.1 mph - N/A   Mostly Cloudy